Home   Weather   Woodbridge Park   Past weeks
Flag for USA

Past Weather in Woodbridge Park, California, USA — Yesterday and Last 2 Weeks

Now
65 °F

Sunny.


Feels Like: 65 °F
Forecast: 72 / 52 °F
Wind: No wind

Location: Los Angeles / USC Campus Downtown

Current Time: Mar 25, 2019 at 7:30:49 pm

Latest Report: Mar 25, 2019 at 5:47 pm


Visibility: 10 mi

Pressure: 30.04 "Hg

Humidity: 56%

Dew Point: 49 °F

Location of Woodbridge ParkLocation

Past Weather in Woodbridge Park — Graph

°F

Woodbridge Park Temperature Yesterday

Maximum temperature yesterday: 68 °F (at 12:47 pm)
Minimum temperature yesterday: 54 °F (at 3:47 am)
Average temperature yesterday: 60 °F

High & Low Weather Summary for the Past Weeks

 TemperatureHumidityPressure
High84 °F (Mar 17, 12:47 pm)90% (Mar 19, 4:47 am)30.20 "Hg (Mar 19, 4:47 am)
Low49 °F (Mar 14, 5:47 am)12% (Mar 15, 12:47 pm)29.71 "Hg (Mar 12, 4:47 pm)
Average61 °F58%30.03 "Hg
* Reported Mar 10 5:47 pm — Mar 25 5:47 pm, Woodbridge Park. Weather by CustomWeather, © 2019

Note: Actual official high and low records may vary slightly from our data, if they occured in-between our weather recording intervals... More about our weather records

Advertising

Woodbridge Park Weather History for the Previous 24 Hours

Scroll right to see more
 ConditionsComfort  
Time TempWeatherWind HumidityBarometerVisibility
5:47 pm
Mon, Mar 25
65 °FSunny.No wind56%30.04 "Hg10 mi
4:47 pm66 °FSunny.6 mph54%30.06 "Hg10 mi
3:47 pm67 °FSunny.5 mph53%30.06 "Hg10 mi
2:47 pm68 °FSunny.9 mph55%30.07 "Hg10 mi
1:47 pm71 °FSunny.7 mph49%30.08 "Hg10 mi
12:47 pm73 °FSunny.3 mph43%30.09 "Hg10 mi
11:47 am73 °FSunny.3 mph43%30.10 "Hg10 mi
10:47 am70 °FSunny.No wind46%30.11 "Hg10 mi
9:47 am67 °FSunny.No wind51%30.13 "Hg10 mi
8:47 am61 °FSunny.No wind65%30.13 "Hg10 mi
7:47 am56 °FSunny.No wind75%30.11 "Hg10 mi
6:47 am53 °FClear.No wind80%30.10 "Hg10 mi
5:47 am55 °FClear.No wind74%30.10 "Hg9 mi
4:47 am54 °FClear.No wind80%30.10 "Hg10 mi
3:47 am55 °FClear.No wind80%30.11 "Hg10 mi
2:47 am55 °FClear.No wind87%30.12 "Hg10 mi
1:47 am55 °FClear.No wind87%30.14 "Hg10 mi
12:47 am55 °FClear.No wind87%30.15 "Hg10 mi
11:47 pm
Sun, Mar 24
56 °FClear.No wind84%30.15 "Hg10 mi
10:47 pm57 °FClear.No wind81%30.16 "Hg10 mi
9:47 pm58 °FClear.No wind78%30.16 "Hg10 mi
8:47 pm59 °FClear.3 mph72%30.15 "Hg10 mi
7:47 pm60 °FClear.6 mph65%30.13 "Hg10 mi
Weather by CustomWeather, © 2019

See weather overview